Clarksburg, WV

4:59 AM EST on December 10, 2019 (GMT -0500)
Benedum

Weather History for KCKB - October, 2019

Change the Weather History Date:

Tuesday, October 29, 2019

  Actual Average Record
Temperature  
Mean Temperature 62 °F -  
Max Temperature 77 °F 61 °F 80 °F (1971)
Min Temperature 46 °F 35 °F 18 °F (1965)
Degree Days  
Heating Degree Days 3    
Month to date heating degree days 170  
Growing Degree Days 12 (Base 50)    
Moisture  
Dew Point 49 °F    
Average Humidity 65    
Maximum Humidity 86    
Minimum Humidity 43    
Precipitation  
Precipitation 0.00 in - - ()
Month to date precipitation 2.47  
Year to date precipitation 34.54  
Sea Level Pressure  
Sea Level Pressure 30.13 in    
Wind  
Wind Speed 2 mph (WSW)    
Max Wind Speed 13 mph    
Max Gust Speed 18 mph    
Visibility 10 miles    
Events      
Averages and records for this station are not official NWS values.
T = Trace of Precipitation, MM = Missing Value Source: NWS Daily Summary

Daily Weather History Graph

Daily Weather History Graph

Search for Another Location

Airport or City:

Astronomy

Oct. 29, 2019 Rise Set
Actual Time 7:45 AM EDT 6:23 PM EDT
Civil Twilight 7:17 AM EDT 6:51 PM EDT
Nautical Twilight 6:46 AM EDT 7:22 PM EDT
Astronomical Twilight 6:14 AM EDT 7:53 PM EDT
Moon 9:16 AM EDT (10/29) 7:47 PM EDT (10/29)
Length of Visible Light 11h 33m
Length of Day
10h 38m
Waxing Crescent, 3% of the Moon is Illuminated
Oct 29
Waxing Crescent
Nov 4
First Quarter
Nov 12
Full
Nov 19
Last Quarter
Nov 26
New

Hourly Weather History & Observations

Time (EDT) Temp. Dew Point Humidity Pressure Visibility Wind Dir Wind Speed Gust Speed Precip Events Conditions
12:53 AM 51.1 °F 45.0 °F 80% 30.09 in 10.0 mi Calm Calm - N/A   Clear
1:53 AM 50.0 °F 44.1 °F 80% 30.08 in 10.0 mi Calm Calm - N/A   Clear
2:53 AM 48.9 °F 44.1 °F 83% 30.08 in 10.0 mi Calm Calm - N/A   Clear
3:53 AM 48.0 °F 43.0 °F 83% 30.08 in 10.0 mi Calm Calm - N/A   Clear
4:53 AM 48.0 °F 44.1 °F 86% 30.08 in 10.0 mi Calm Calm - N/A   Clear
5:53 AM 46.9 °F 43.0 °F 86% 30.10 in 10.0 mi Calm Calm - N/A   Clear
6:53 AM 46.9 °F 42.1 °F 83% 30.11 in 10.0 mi Calm Calm - N/A   Partly Cloudy
7:53 AM 46.9 °F 43.0 °F 86% 30.13 in 10.0 mi Calm Calm - N/A   Clear
8:53 AM 52.0 °F 46.0 °F 80% 30.15 in 10.0 mi Calm Calm - N/A   Clear
9:53 AM 59.0 °F 51.1 °F 75% 30.16 in 10.0 mi Calm Calm - N/A   Clear
10:53 AM 64.9 °F 51.1 °F 61% 30.16 in 10.0 mi Calm Calm - N/A   Overcast
11:53 AM 72.0 °F 53.1 °F 51% 30.17 in 10.0 mi West 8.1 mph - N/A   Mostly Cloudy
12:53 PM 73.9 °F 54.0 °F 50% 30.15 in 10.0 mi WSW 8.1 mph - N/A   Partly Cloudy
1:53 PM 73.9 °F 54.0 °F 50% 30.14 in 10.0 mi SW 8.1 mph - N/A   Mostly Cloudy
2:53 PM 77.0 °F 53.1 °F 43% 30.13 in 10.0 mi SW 10.4 mph - N/A   Mostly Cloudy
3:53 PM 75.9 °F 52.0 °F 43% 30.12 in 9.0 mi Variable 3.5 mph - N/A   Partly Cloudy
4:53 PM 75.0 °F 51.1 °F 43% 30.12 in 9.0 mi SW 3.5 mph - N/A   Partly Cloudy
5:53 PM 71.1 °F 51.1 °F 49% 30.13 in 8.0 mi WSW 4.6 mph - N/A   Clear
6:53 PM 66.9 °F 51.1 °F 57% 30.13 in 10.0 mi Calm Calm - N/A   Clear
7:53 PM 64.0 °F 52.0 °F 65% 30.15 in 10.0 mi Calm Calm - N/A   Clear
8:53 PM 62.1 °F 52.0 °F 70% 30.18 in 10.0 mi Calm Calm - N/A   Clear
9:53 PM 63.0 °F 53.1 °F 70% 30.19 in 10.0 mi North 4.6 mph - N/A   Clear
10:53 PM 61.0 °F 52.0 °F 72% 30.20 in 10.0 mi North 3.5 mph - N/A   Clear
11:53 PM 59.0 °F 51.1 °F 75% 30.20 in 10.0 mi Calm Calm - N/A   Clear